{"data":{"norad_id":67633,"intl_designator":"2026-020S","name":"STARLINK-36637","alt_names":[],"object_type":"PAYLOAD","status":"ACTIVE","operator":null,"country":"US","launch_date":"2026-01-30","launch_site_code":"AFETR","launch_vehicle":null,"mission":null,"orbit_class":"UNKNOWN","rcs_meters":null,"size_class":null,"mass_kg":null,"dimensions":null,"purposes":["comms"],"wikipedia_slug":null,"has_3d_model":false,"image_url":null,"decayed_at":null,"tle_current":{"epoch":"2026-09-19T16:33:26.146080Z","epoch_age_seconds":138900,"freshness":"FRESH","line1":"1 67633U 26020S   26262.68988595  .00014300  00000+0  52796-3 0  9990","line2":"2 67633  43.0011 124.1471 0001620 262.4976  97.5692 15.27593368 35781","mean_motion":15.27593368,"eccentricity":0.000162,"inclination_deg":43.0011,"raan_deg":124.1471,"arg_perigee_deg":262.4976,"mean_anomaly_deg":97.5692,"bstar":0.00052796,"rev_number":3578,"period_min":94.265923783455,"perigee_km":481.89756206748,"apogee_km":484.12057339342,"semimajor_km":6861.1460677304,"source":"CELESTRAK","updated_at":"2026-09-20T09:00:43.614218Z"}}}